Stations météo

Publicité
Tholey, Allemagne (10706): Température de l'air & dewpoint: 18.02.2020 20:00:00 - 24.02.2020 20:00:00 (CET)Tholey, Allemagne (10706): Température de l'air 5cm & Température de l'air -5cm: 18.02.2020 20:00:00 - 24.02.2020 20:00:00 (CET)Tholey, Allemagne (10706): Température de l'air -20cm & Température de l'air -100cm: 18.02.2020 20:00:00 - 24.02.2020 20:00:00 (CET)Tholey, Allemagne (10706): Vitesse du vent & gusts: 18.02.2020 20:00:00 - 24.02.2020 20:00:00 (CET)Tholey, Allemagne (10706): Direction du vent: 18.02.2020 20:00:00 - 24.02.2020 20:00:00 (CET)Tholey, Allemagne (10706): reduced air pressure: 18.02.2020 20:00:00 - 24.02.2020 20:00:00 (CET)Tholey, Allemagne (10706): visibility: 18.02.2020 20:00:00 - 24.02.2020 20:00:00 (CET)Tholey, Allemagne (10706): Ensoleillement: 18.02.2020 20:00:00 - 24.02.2020 20:00:00 (CET)Tholey, Allemagne (10706): Quantités de précipitations: 18.02.2020 20:00:00 - 24.02.2020 20:00:00 (CET)
Date & Time tt [°C] td [°C] tt 5cm [°C] tt -5cm [°C] tt -20cm [°C] tt -100cm [°C] ff [km/h] ff [knt] fx [km/h] fx [knt] dd ppp [hPa] vv [km] sd [min] rr [mm]
24.02.2020 20:00:00 9,0 5,2 8,3 7,5 6,6 6,2 41 22 69 37 W 1012,2 70 0 0,0
24.02.2020 19:00:00 9,7 5,9 8,8 7,6 6,6 6,2 42 23 67 36 WSW 1011,5 70 0 0,0
24.02.2020 18:00:00 9,3 6,5 8,6 7,9 6,5 6,2 36 19 63 34 W 1012,1 75 0 0,0
24.02.2020 17:00:00 9,5 7,4 9,0 8,2 6,4 6,2 36 19 60 32 W 1013,0 67 0 0,0
24.02.2020 16:00:00 9,8 8,6 9,4 8,3 6,2 6,2 34 18 47 26 WSW 1013,9 68 0 0,0
24.02.2020 15:00:00 9,6 8,9 9,6 8,0 6,1 6,1 29 16 51 28 WSW 1015,2 55 0 0,0
24.02.2020 14:00:00 8,8 8,8 8,7 7,6 6,0 6,1 31 17 44 24 WSW 1016,9 31 0 0,1
24.02.2020 13:00:00 6,9 6,9 7,2 7,1 6,0 6,1 12 6 18 10 WSW 1018,8 0,2 0 0,1
24.02.2020 12:00:00 5,7 5,7 6,2 6,6 5,9 6,1 7 4 15 8 SW 1020,5 0,7 0 0,2
24.02.2020 11:00:00 4,9 4,7 5,3 6,1 5,9 6,1 4 2 12 6 S 1021,9 3,0 0 0,6
24.02.2020 10:00:00 4,3 4,3 4,5 5,6 6,0 6,1 6 4 15 8 SSE 1023,2 1,5 0 0,4
24.02.2020 09:00:00 4,1 4,1 4,2 5,4 6,1 6,1 6 3 11 6 SSE 1023,9 1,0 0 0,5
24.02.2020 08:00:00 3,7 3,5 3,7 5,4 6,1 6,1 6 3 11 6 SW 1024,5 3,6 0 0,4
24.02.2020 07:00:00 4,4 4,2 4,2 5,6 6,2 6,1 8 4 12 7 W 1025,2 4,2 0 0,4
24.02.2020 06:00:00 4,9 4,7 4,6 5,7 6,3 6,1 8 5 13 7 WSW 1025,5 9 0 0,3
24.02.2020 05:00:00 5,1 4,9 4,8 5,8 6,4 6,1 9 5 12 6 SW 1025,6 11 0 0,3
24.02.2020 04:00:00 5,2 4,7 4,7 6,0 6,5 6,1 8 4 13 7 WSW 1025,7 29 0 0,0
24.02.2020 03:00:00 5,5 4,3 4,9 6,2 6,6 6,1 10 5 13 7 W 1025,7 55 0 0,0
24.02.2020 02:00:00 5,8 3,4 5,0 6,4 6,6 6,1 9 5 26 14 W 1025,7 63 0 0,0
24.02.2020 01:00:00 6,4 3,7 5,3 7,0 6,7 6,1 13 7 34 19 W 1025,2 68 0 0,1
24.02.2020 00:00:00 6,8 5,2 6,0 7,7 6,6 6,1 18 10 39 21 NNW 1024,5 4,9 0 0,1
23.02.2020 23:00:00 9,0 6,6 7,7 8,3 6,6 6,1 24 13 53 29 WNW 1022,8 24 0 1,4
23.02.2020 22:00:00 9,6 9,6 9,2 8,4 6,4 6,1 32 18 64 35 W 1021,3 4,6 0 2,8
23.02.2020 21:00:00 9,5 9,4 9,1 8,2 6,3 6,1 37 20 61 33 WSW 1019,9 3,8 0 1,0
23.02.2020 20:00:00 9,4 9,2 8,9 8,0 6,2 6,1 38 21 65 35 WSW 1019,6 6 0 0,6
23.02.2020 19:00:00 9,0 8,7 8,5 7,9 6,2 6,1 44 24 63 34 WSW 1019,2 4,2 0 0,4
23.02.2020 18:00:00 8,7 8,5 8,3 7,8 6,1 6,1 42 23 71 39 WSW 1018,8 3,1 0 0,4
23.02.2020 17:00:00 8,8 8,2 8,3 7,8 6,0 6,1 45 25 82 44 WSW 1018,0 4,8 0 0,1
23.02.2020 16:00:00 9,0 8,0 8,2 7,8 5,9 6,1 50 27 76 41 WSW 1017,8 17 0 0,0
23.02.2020 15:00:00 9,2 7,8 8,4 7,8 5,8 6,1 53 28 80 43 W 1017,8 11 0 0,0
23.02.2020 14:00:00 9,3 7,6 8,9 7,7 5,7 6,2 43 23 82 45 W 1018,9 44 0 0,0
23.02.2020 13:00:00 9,1 7,5 8,7 7,5 5,7 6,2 49 26 80 43 WSW 1018,9 50 0 0,0
23.02.2020 12:00:00 9,0 7,7 8,5 7,3 5,6 6,2 47 26 78 42 WSW 1020,0 31 0 0,0
23.02.2020 11:00:00 8,2 7,6 7,7 7,0 5,5 6,2 42 23 67 36 WSW 1019,9 18 0 0,0
23.02.2020 10:00:00 8,2 7,2 7,8 6,7 5,5 6,2 45 24 64 35 WSW 1020,4 42 0 0,0
23.02.2020 09:00:00 7,5 6,8 7,0 6,5 5,4 6,2 39 21 59 32 WSW 1021,5 33 0 0,0
23.02.2020 08:00:00 7,3 6,8 6,8 6,5 5,4 6,2 36 19 55 30 WSW 1022,1 14 0 0,0
23.02.2020 07:00:00 7,4 6,8 6,9 6,4 5,3 6,2 34 18 49 27 WSW 1023,1 24 0 0,0
23.02.2020 06:00:00 7,7 6,7 7,2 6,3 5,3 6,2 29 16 46 25 WSW 1023,6 26 0 0,0
23.02.2020 05:00:00 7,5 6,5 6,9 6,4 5,2 6,2 32 18 48 26 WSW 1024,2 28 0 0,1
23.02.2020 04:00:00 7,7 6,7 6,9 6,4 5,2 6,2 34 19 53 29 W 1024,8 29 0 0,1
23.02.2020 03:00:00 7,8 6,9 7,0 6,3 5,1 6,2 35 19 53 28 WSW 1025,4 18 0 0,6
23.02.2020 02:00:00 8,0 6,3 7,1 6,2 5,0 6,2 29 16 42 23 WSW 1026,1 30 0 0,1
23.02.2020 01:00:00 8,0 6,0 7,0 6,1 5,0 6,2 30 16 50 27 WSW 1026,2 32 0 0,0
23.02.2020 00:00:00 8,2 5,5 7,6 6,0 4,9 6,2 29 16 46 25 WSW 1026,1 39 0 0,0
22.02.2020 23:00:00 7,9 5,6 7,1 5,9 4,9 6,2 26 14 50 27 W 1026,9 34 0 0,0
22.02.2020 22:00:00 8,0 4,8 7,3 5,8 4,8 6,2 36 19 55 30 W 1026,9 39 0 0,0
22.02.2020 21:00:00 8,0 4,3 7,2 5,7 4,8 6,2 36 20 52 28 WSW 1026,9 45 0 0,0
22.02.2020 20:00:00 8,0 3,8 6,0 5,7 4,8 6,2 33 18 51 28 W 1026,8 24 0 0,2
22.02.2020 19:00:00 9,0 2,3 8,2 5,7 4,7 6,2 32 17 50 27 W 1025,8 56 0 0,0
22.02.2020 18:00:00 9,3 1,6 8,3 6,0 4,6 6,2 34 18 51 27 WSW 1025,4 56 0 0,0
22.02.2020 17:00:00 9,1 2,1 8,1 6,3 4,4 6,2 29 16 41 22 WSW 1025,3 49 0 0,0
22.02.2020 16:00:00 8,9 1,9 8,2 6,5 4,2 6,2 31 17 47 25 WSW 1025,1 48 0 0,0
22.02.2020 15:00:00 8,7 1,6 8,2 6,8 3,9 6,2 32 17 52 28 WSW 1025,0 55 0 0,0
22.02.2020 14:00:00 8,0 1,1 7,7 7,1 3,6 6,2 42 23 65 35 WSW 1025,1 54 31 0,0
22.02.2020 13:00:00 7,4 1,1 7,8 7,4 3,2 6,2 33 18 49 26 W 1026,7 46 51 0,0
22.02.2020 12:00:00 6,9 1,1 8,6 5,9 3,1 6,2 32 17 54 29 WSW 1027,1 58 60 0,0
22.02.2020 11:00:00 5,1 0,6 6,1 3,4 3,1 6,2 27 15 41 22 WSW 1028,1 52 55 0,0
22.02.2020 10:00:00 3,3 -0,1 4,0 1,1 3,1 6,2 20 11 29 16 WSW 1029,2 49 60 0,0
22.02.2020 09:00:00 1,7 -0,9 2,0 0,7 3,2 6,2 17 9 27 15 WSW 1029,4 51 51 0,0
22.02.2020 08:00:00 1,1 -1,0 0,0 0,7 3,3 6,2 21 11 30 16 W 1029,1 33 7 0,0
22.02.2020 07:00:00 1,3 -0,9 0,0 0,8 3,4 6,2 20 11 30 16 W 1028,1 39 0 0,0
22.02.2020 06:00:00 0,9 -0,9 -0,5 0,8 3,5 6,2 17 9 25 13 W 1028,9 38 0 0,0
22.02.2020 05:00:00 1,0 -0,9 -0,2 0,9 3,6 6,2 21 11 27 15 W 1029,2 37 0 0,0
22.02.2020 04:00:00 1,1 -0,8 -0,3 0,9 3,8 6,2 17 9 25 14 W 1029,1 38 0 0,0
22.02.2020 03:00:00 1,3 -0,8 -0,1 1,0 3,9 6,2 18 10 26 14 W 1029,7 35 0 0,0
22.02.2020 02:00:00 1,8 -0,6 0,2 1,0 4,1 6,2 16 9 24 13 WSW 1029,6 35 0 0,0
22.02.2020 01:00:00 2,1 -0,1 0,1 1,4 4,2 6,2 13 7 19 11 WSW 1029,8 36 0 0,0
22.02.2020 00:00:00 2,6 0,0 0,8 1,9 4,4 6,2 14 7 21 11 WSW 1030,0 36 0 0,0
21.02.2020 23:00:00 3,3 0,2 1,8 2,4 4,5 6,2 17 9 26 14 WSW 1030,2 36 0 0,0
21.02.2020 22:00:00 3,4 0,0 2,5 2,5 4,6 6,2 16 8 22 12 WSW 1030,3 38 0 0,0
21.02.2020 21:00:00 3,5 -0,1 2,4 2,6 4,8 6,2 16 9 24 13 W 1030,5 43 0 0,0
21.02.2020 20:00:00 3,8 -0,6 2,1 2,9 4,9 6,2 18 10 25 14 W 1030,1 44 0 0,0
21.02.2020 19:00:00 4,6 -0,7 2,9 3,6 5,0 6,2 19 10 27 15 W 1030,2 43 0 0,0
21.02.2020 18:00:00 5,2 -0,8 3,6 4,6 5,0 6,2 22 12 33 18 WSW 1029,4 54 1 0,0
21.02.2020 17:00:00 5,9 -1,0 5,1 5,5 4,9 6,2 23 12 40 22 W 1029,6 58 1 0,0
21.02.2020 16:00:00 6,4 -0,6 6,1 6,4 4,8 6,2 23 13 44 24 W 1029,7 61 20 0,0
21.02.2020 15:00:00 6,1 -0,1 6,4 6,6 4,6 6,2 27 15 42 23 WSW 1029,8 44 2 0,0
21.02.2020 14:00:00 5,5 0,2 5,9 6,5 4,3 6,2 24 13 38 21 W 1030,5 41 0 0,0
21.02.2020 13:00:00 5,0 0,3 5,6 6,8 4,1 6,2 26 14 46 25 W 1031,0 54 31 0,0
21.02.2020 12:00:00 4,7 0,6 6,1 6,4 4,0 6,2 22 12 35 19 W 1031,1 42 45 0,0
21.02.2020 11:00:00 3,2 0,9 4,9 3,7 3,9 6,2 20 11 29 16 WSW 1031,1 36 4 0,0
21.02.2020 10:00:00 2,0 1,0 2,4 3,1 4,0 6,2 17 9 32 17 WSW 1030,8 21 1 0,0
21.02.2020 09:00:00 1,7 0,8 1,8 2,3 4,0 6,2 21 11 30 16 WSW 1030,6 23 0 0,0
21.02.2020 08:00:00 1,4 0,8 1,2 2,0 4,2 6,2 15 8 22 12 WSW 1029,8 19 0 0,0
21.02.2020 07:00:00 1,1 0,5 0,7 1,7 4,3 6,2 13 7 20 11 W 1029,0 24 0 0,0
21.02.2020 06:00:00 1,7 0,0 1,1 2,0 4,4 6,2 12 7 25 13 WSW 1028,3 46 0 0,0
21.02.2020 05:00:00 2,1 -0,7 0,8 2,0 4,6 6,2 20 11 36 19 W 1026,9 52 0 0,0
21.02.2020 04:00:00 2,6 -0,6 1,5 2,5 4,7 6,2 21 11 34 18 W 1025,9 61 0 0,0
21.02.2020 03:00:00 2,7 -0,3 1,6 2,8 4,9 6,2 21 12 41 22 W 1025,2 69 0 0,2
21.02.2020 02:00:00 3,0 1,1 2,1 3,5 5,0 6,2 24 13 49 26 WNW 1024,2 33 0 0,2
21.02.2020 01:00:00 3,8 0,4 2,7 3,8 5,0 6,2 27 15 58 31 W 1022,1 66 0 0,0
21.02.2020 00:00:00 4,4 1,3 3,7 4,3 5,0 6,2 27 15 60 32 W 1020,4 75 0 0,1
20.02.2020 23:00:00 5,3 3,5 4,3 5,0 5,1 6,2 40 21 67 36 W 1017,8 13 0 1,5
20.02.2020 22:00:00 5,7 4,5 4,9 4,9 5,1 6,2 35 19 59 32 WSW 1016,2 15 0 1,2
20.02.2020 21:00:00 7,0 2,2 5,4 4,9 5,1 6,2 35 19 54 29 WSW 1016,0 30 0 0,0
20.02.2020 20:00:00 7,1 1,5 6,2 4,9 5,1 6,2 37 20 61 33 WSW 1016,6 72 0 0,0
20.02.2020 19:00:00 6,9 1,6 6,0 5,1 5,1 6,2 34 19 50 27 WSW 1016,9 73 0 0,0
20.02.2020 18:00:00 6,6 2,1 5,9 5,4 5,1 6,2 27 14 51 28 WSW 1017,3 75 0 0,0
20.02.2020 17:00:00 6,8 2,3 6,1 5,7 5,0 6,2 32 17 47 25 WSW 1018,0 68 0 0,0
20.02.2020 16:00:00 6,7 2,5 5,8 5,9 4,9 6,2 32 17 53 29 WSW 1018,6 34 0 0,0
20.02.2020 15:00:00 6,8 2,3 6,6 6,2 4,8 6,2 32 17 50 27 WSW 1018,7 66 0 0,0
20.02.2020 14:00:00 6,3 3,0 5,4 6,6 4,6 6,2 38 20 54 29 WSW 1019,7 15 0 0,1
20.02.2020 13:00:00 6,0 4,0 5,6 6,7 4,5 6,2 36 19 52 28 WSW 1020,3 9 13 0,0
20.02.2020 12:00:00 6,2 4,1 5,9 5,8 4,3 6,2 29 16 50 27 WSW 1020,9 27 2 0,1
20.02.2020 11:00:00 5,8 4,4 5,3 5,1 4,3 6,2 32 18 46 25 WSW 1021,1 37 0 0,1
20.02.2020 10:00:00 5,3 4,7 5,0 4,6 4,2 6,2 24 13 38 21 WSW 1021,7 19 0 0,0
20.02.2020 09:00:00 4,9 4,8 4,7 4,2 4,2 6,2 24 13 39 21 WSW 1021,7 11 0 0,0
20.02.2020 08:00:00 4,4 4,4 4,2 3,9 4,1 6,2 23 12 35 19 WSW 1021,5 4,2 0 0,0
20.02.2020 07:00:00 4,0 4,0 3,8 3,7 4,1 6,2 24 13 32 18 WSW 1021,7 0,1 0 0,1
20.02.2020 06:00:00 3,7 3,7 3,5 3,5 4,1 6,2 18 10 25 14 SW 1022,2 2,9 0 0,1
20.02.2020 05:00:00 3,5 3,4 3,3 3,4 4,1 6,2 15 8 24 13 SW 1022,6 9 0 0,1
20.02.2020 04:00:00 3,4 3,2 3,1 3,3 4,1 6,2 16 9 27 15 SW 1023,0 11 0 0,0
20.02.2020 03:00:00 3,4 3,1 3,1 3,2 4,1 6,2 13 7 27 15 WSW 1023,5 10 0 0,1
20.02.2020 02:00:00 3,4 2,9 2,9 3,0 4,1 6,2 16 8 26 14 WSW 1024,1 21 0 0,2
20.02.2020 01:00:00 3,5 2,2 2,7 2,7 4,2 6,2 16 9 26 14 WSW 1024,5 19 0 0,3
20.02.2020 00:00:00 3,0 1,6 2,3 2,5 4,3 6,2 12 7 19 11 WSW 1025,0 29 0 0,0
19.02.2020 23:00:00 2,4 0,9 1,4 2,2 4,4 6,2 13 7 21 12 W 1025,2 28 0 0,1
19.02.2020 22:00:00 2,5 -0,5 1,3 2,1 4,6 6,2 16 8 23 13 W 1025,6 20 0 0,0
19.02.2020 21:00:00 2,7 -1,2 1,4 1,9 4,7 6,2 14 8 20 11 W 1025,6 44 0 0,0
19.02.2020 20:00:00 2,9 -1,6 0,6 2,4 4,9 6,2 12 6 16 8 W 1025,7 46 0 0,0
19.02.2020 19:00:00 3,8 -1,9 1,9 3,1 5,0 6,2 14 7 36 20 W 1025,4 49 0 0,0
19.02.2020 18:00:00 4,7 -2,3 3,3 4,2 5,0 6,2 26 14 43 23 W 1024,7 53 23 0,0
19.02.2020 17:00:00 5,5 -2,0 5,0 4,9 4,9 6,2 27 14 48 26 W 1024,1 48 17 0,0
19.02.2020 16:00:00 5,4 -2,0 5,0 5,4 4,9 6,2 24 13 52 28 W 1024,0 72 22 0,0
19.02.2020 15:00:00 5,6 -2,0 6,2 5,2 4,8 6,2 26 14 46 25 W 1023,5 51 20 0,0
19.02.2020 14:00:00 4,8 -2,1 4,2 5,4 4,7 6,2 31 17 46 25 WNW 1023,3 68 20 0,0
19.02.2020 13:00:00 5,2 -0,5 6,5 5,2 4,6 6,2 22 12 44 24 W 1023,1 44 10 0,1
19.02.2020 12:00:00 4,4 0,4 4,7 5,6 4,6 6,2 23 13 48 26 W 1023,2 53 19 0,1
19.02.2020 11:00:00 3,6 0,5 3,6 4,9 4,6 6,2 20 11 46 25 W 1022,6 15 30 0,0
19.02.2020 10:00:00 3,0 0,1 2,2 3,9 4,6 6,2 24 13 41 22 WNW 1021,7 48 10 0,1
19.02.2020 09:00:00 2,6 1,6 2,0 3,6 4,7 6,2 21 12 42 23 W 1020,4 7 0 1,0
19.02.2020 08:00:00 3,5 1,7 2,7 3,6 4,7 6,2 26 14 45 25 W 1019,1 11 0 0,0
19.02.2020 07:00:00 4,0 2,5 3,4 3,9 4,7 6,2 25 13 47 26 W 1018,4 75 0 0,0
19.02.2020 06:00:00 4,0 2,7 3,3 4,1 4,7 6,2 32 18 60 33 W 1018,2 75 0 1,0
19.02.2020 05:00:00 4,3 3,4 3,8 4,1 4,8 6,2 41 22 64 34 WSW 1017,5 37 0 1,9
19.02.2020 04:00:00 4,5 3,7 3,9 4,1 4,8 6,2 40 21 57 31 WSW 1018,1 8 0 0,8
19.02.2020 03:00:00 4,4 3,5 3,7 4,0 4,8 6,2 32 17 62 34 WSW 1019,5 16 0 0,6
19.02.2020 02:00:00 4,7 2,9 4,0 4,0 4,8 6,2 27 15 48 26 WSW 1020,6 37 0 0,0
19.02.2020 01:00:00 4,5 2,4 4,0 3,9 4,8 6,2 29 15 41 22 WSW 1021,7 51 0 0,0
19.02.2020 00:00:00 4,5 2,4 4,0 3,9 4,9 6,2 20 11 37 20 WSW 1022,9 50 0 0,0
18.02.2020 23:00:00 4,6 2,3 4,0 3,8 4,9 6,2 24 13 40 22 WSW 1023,8 46 0 0,0
18.02.2020 22:00:00 4,6 2,0 4,1 3,7 5,0 6,2 24 13 43 23 SW 1024,5 51 0 0,0
18.02.2020 21:00:00 4,2 1,9 3,3 3,5 5,1 6,2 13 7 24 13 WSW 1025,3 45 0 0,0
18.02.2020 20:00:00 4,2 1,7 3,4 3,8 5,2 6,2 19 11 35 19 WSW 1025,6 53 0 0,0

tt = Température de l'air
td = dewpoint
tt 5cm = Température de l'air 5cm
tt -5cm = Température de l'air -5cm
tt -20cm = Température de l'air -20cm
tt -100cm = Température de l'air -100cm
ff = Vitesse du vent
fx = gusts
dd = Direction du vent
ppp = reduced air pressure
vv = visibility
sd = Ensoleillement
rr = Quantités de précipitations

stations d'obs. à proximité